COSMOS 2491 DEB, 45172

Orbit data source: Space-Track

COSMOS 2491 DEB, 45172 is space debris in LEO originally from a launch on Wed, 25 Dec 2013 UTC launched from the Plesetsk Missile And Space Complex (PKMTR). Debris objects in space refer to the collection of defunct objects orbiting the Earth. Examples of debris include non-operational satellites, rocket bodies, and fragments generated from explosions, collisions, or faulty payload assembly.

Loading next visibility...
Identifier
45172, 2013-076AD
Orbit
LEO
Country
Flag of CISCIS
Related business
Manufacturer
TsNIIKhM
Mission
Spacecraft
Bus & Motor
Unknown
Mass
Unknown
Launch date (UTC)
2013-12-25 (12 years ago)
Launch vehicle
Unknown
Launch site
Plesetsk Missile And Space Complex (PKMTR)
Object type
Payload
Rocket body
Debris
Shape & HBR
Unknown
Radar Cross Section
Small (<0.1 m²)

Expand to show TLE details & history
Last TLE update: 3 days ago

TLE from 3 days ago
0 COSMOS 2491 DEB
1 45172U 13076AD  25255.42664183  .00001580  00000-0  78278-2 0  9997
2 45172  82.4565 292.1661 0154885  78.2284 283.6138 12.67206024259085
Epoch: 2025-09-12T10:14Z
TLE epoch observation values (Epoch: 2025-09-12T10:14:21.854Z)
Latitude
0.00002°
Longitude
146.90053°
Altitude
1,369.51 km
Speed
7.186 km/s
True Right ascension
19h 28m 39s
True Declination
0° 00' 00"
Sunlit
Object was in daylight at epoch
Visualization orbit readout
Latitude
Unknown
Longitude
Unknown
Altitude
Unknown
Speed
Unknown
Apparent Right ascension
Unknown
Apparent Declination
Unknown
Sunlit
N/A
Visualization observer readout
Local Sidereal Time
07:04:49
Azimuth
Unknown
Elevation
Unknown
Doppler factor
Unknown
Orbital elements
Apogee altitude
1,510.987 km
Perigee altitude
1,270.333 km
Semi-major axis
7,768.797 km
Eccentricity
0.01549
Inclination
82.4565°
RAAN
292.1661°
Arg. of periapsis
78.2284°
True anomaly
281.88118°
Mean anomaly
283.6138°
Eccentric anomaly
282.74825°
Mean motion
3.16966 °/min
Orbital period
113.58 mins
BSTAR
0.0078278
Loading maneuver chart data...
Computing Atmospheric mass density...
Loading historical data...
Loading historical data...
Loading historical data...
Loading historical data...
Loading historical data...
Loading historical data...
Loading historical data...

Documentation

Showing up to 5 results
|